FW9587 Weather Reports


time (UTC)temp
C
wind
direction
speed
KPH
gust
KPH
rain 1hr
cm
rain 24hr
cm
rain mn
cm
humidity
%
barometer
mb
20260506183043 18 161 6.4 20.9 0.00 0.05 0.05 76 1008.2
20260506182521 18 155 4.8 20.9 0.00 0.05 0.05 76 1008.1
20260506182021 18 165 6.4 24.1 0.00 0.05 0.05 76 1008.1
20260506181542 18 187 8.0 27.4 0.00 0.05 0.05 76 1008.3
20260506181023 18 134 6.4 27.4 0.00 0.05 0.05 76 1008.5
20260506180521 18 236 6.4 19.3 0.00 0.05 0.05 76 1008.3
20260506180042 18 173 8.0 19.3 0.00 0.05 0.05 77 1008.4
20260506175523 18 188 6.4 19.3 0.00 0.05 0.05 77 1008.5
20260506175020 18 273 8.0 25.7 0.00 0.05 0.05 77 1008.6
20260506174541 19 184 6.4 25.7 0.00 0.05 0.05 76 1008.6
20260506174024 19 221 9.7 25.7 0.00 0.05 0.05 76 1008.6
20260506173524 20 181 6.4 22.5 0.00 0.05 0.05 75 1008.6
20260506173058 20 328 8.0 22.5 0.00 0.05 0.05 75 1008.4
20260506172520 20 152 8.0 22.5 0.03 0.05 0.05 75 1008.4
20260506172021 20 140 9.7 25.7 0.03 0.05 0.05 74 1008.3
20260506171550 20 221 9.7 25.7 0.03 0.05 0.05 74 1008.4
20260506171023 20 132 8.0 19.3 0.03 0.05 0.05 74 1008.5
20260506170615 20 176 9.7 17.7 0.03 0.05 0.05 75 1008.4
20260506170042 20 186 4.8 17.7 0.03 0.05 0.05 78 1008.5
20260506165525 19 155 6.4 17.7 0.03 0.05 0.05 79 1008.5
20260506165025 18 210 3.2 12.9 0.03 0.05 0.05 80 1008.7
20260506164547 18 155 3.2 12.9 0.05 0.05 0.05 80 1008.9
20260506164024 18 206 3.2 11.3 0.05 0.05 0.05 81 1009.1
20260506163525 18 0 3.2 11.3 0.05 0.05 0.05 80 1009.2
20260506163038 18 138 1.6 14.5 0.05 0.05 0.05 80 1009.5
20260506162525 18 176 4.8 14.5 0.03 0.03 0.03 77 1009.7
20260506162024 18 196 4.8 20.9 0.03 0.03 0.03 77 1009.8
20260506161544 18 0 3.2 20.9 0.03 0.03 0.03 78 1010.0
20260506161026 18 205 4.8 11.3 0.03 0.03 0.03 78 1009.8
20260506160524 18 151 3.2 12.9 0.03 0.03 0.03 77 1010.0
20260506160050 18 0 4.8 17.7 0.03 0.03 0.03 76 1010.1
20260506155525 18 180 4.8 22.5 0.03 0.03 0.03 76 1010.1
20260506155025 18 192 4.8 22.5 0.03 0.03 0.03 75 1010.2
20260506154550 19 166 8.0 24.1 0.00 0.00 0.00 72 1010.1
20260506154025 19 217 6.4 24.1 0.00 0.00 0.00 71 1010.1
20260506153524 20 157 6.4 20.9 0.00 0.00 0.00 69 1009.8
20260506153037 20 178 6.4 20.9 0.00 0.00 0.00 66 1010.0
20260506152525 20 161 8.0 19.3 0.00 0.00 0.00 66 1010.0
20260506152026 20 198 6.4 19.3 0.00 0.00 0.00 66 1010.0
20260506151535 20 148 3.2 19.3 0.00 0.00 0.00 67 1009.9
20260506151022 20 204 11.3 19.3 0.00 0.00 0.00 66 1010.1
20260506150525 20 196 6.4 19.3 0.00 0.00 0.00 66 1010.1
20260506150042 20 194 6.4 19.3 0.00 0.00 0.00 66 1010.0
20260506145525 20 190 6.4 19.3 0.00 0.00 0.00 66 1010.1
20260506145026 20 176 6.4 19.3 0.00 0.00 0.00 66 1010.1
20260506144544 20 197 6.4 17.7 0.00 0.00 0.00 66 1010.2
20260506144027 20 183 8.0 20.9 0.00 0.00 0.00 65 1010.1
20260506143527 20 221 6.4 20.9 0.00 0.00 0.00 66 1010.2
20260506143040 20 217 9.7 20.9 0.00 0.00 0.00 65 1010.1
20260506142528 21 180 6.4 22.5 0.00 0.00 0.00 65 1010.0
20260506142024 21 176 4.8 24.1 0.00 0.00 0.00 65 1010.1
20260506141544 21 209 6.4 24.1 0.00 0.00 0.00 65 1010.1
20260506141025 21 163 6.4 25.7 0.00 0.00 0.00 65 1010.0
20260506140525 20 180 6.4 25.7 0.00 0.00 0.00 66 1010.0
20260506140045 20 186 8.0 25.7 0.00 0.00 0.00 66 1010.0
20260506135525 20 169 4.8 16.1 0.00 0.00 0.00 66 1010.1
20260506135027 20 207 6.4 19.3 0.00 0.00 0.00 66 1010.0
20260506134544 20 184 6.4 19.3 0.00 0.00 0.00 67 1010.0
20260506134025 20 180 6.4 19.3 0.00 0.00 0.00 66 1010.0
20260506133524 20 153 6.4 20.9 0.00 0.00 0.00 67 1010.0
20260506133039 20 188 6.4 20.9 0.00 0.00 0.00 67 1010.0
20260506132525 20 143 9.7 24.1 0.00 0.00 0.00 67 1010.2
20260506132025 20 170 8.0 24.1 0.00 0.00 0.00 67 1010.3
20260506131538 20 115 8.0 17.7 0.00 0.00 0.00 67 1010.3
20260506131025 20 165 8.0 33.8 0.00 0.00 0.00 67 1010.2
20260506130526 20 107 9.7 33.8 0.00 0.00 0.00 68 1010.0
20260506130037 20 202 8.0 17.7 0.00 0.00 0.00 69 1010.1
20260506125524 20 192 8.0 20.9 0.00 0.00 0.00 68 1010.2
20260506125027 20 197 9.7 20.9 0.00 0.00 0.00 69 1010.2
20260506124543 20 202 9.7 22.5 0.00 0.00 0.00 69 1010.0
20260506124025 20 114 8.0 22.5 0.00 0.00 0.00 70 1010.0
20260506123525 19 142 6.4 19.3 0.00 0.00 0.00 71 1010.0
20260506123044 19 197 8.0 19.3 0.00 0.00 0.00 71 1009.9
20260506122526 18 172 8.0 19.3 0.00 0.00 0.00 72 1010.1
20260506122025 18 148 6.4 19.3 0.00 0.00 0.00 72 1010.3
20260506121548 18 121 4.8 16.1 0.00 0.00 0.00 73 1010.3
20260506121026 18 171 8.0 16.1 0.00 0.00 0.00 73 1010.3
20260506120525 18 192 6.4 17.7 0.00 0.00 0.00 73 1010.2
20260506120107 18 204 6.4 19.3 0.00 0.00 0.00 73 1010.2
20260506115524 18 178 8.0 19.3 0.00 0.00 0.00 73 1010.2
20260506115025 18 129 8.0 19.3 0.00 0.00 0.00 73 1010.3
20260506114545 18 183 6.4 19.3 0.00 0.00 0.00 74 1010.4
20260506114024 18 200 6.4 19.3 0.00 0.00 0.00 74 1010.5
20260506113526 18 183 6.4 20.9 0.00 0.00 0.00 74 1010.6
20260506113043 18 194 8.0 20.9 0.00 0.00 0.00 74 1010.4
20260506112526 18 130 6.4 20.9 0.00 0.00 0.00 75 1010.2
20260506112025 17 172 9.7 24.1 0.00 0.00 0.00 76 1010.4
20260506111541 17 150 6.4 24.1 0.00 0.00 0.00 76 1010.6
20260506111025 17 188 9.7 24.1 0.00 0.00 0.00 77 1010.5
20260506110525 17 138 4.8 16.1 0.00 0.00 0.00 77 1010.5
20260506110038 17 202 8.0 19.3 0.00 0.00 0.00 77 1010.4
20260506105522 17 173 8.0 19.3 0.00 0.00 0.00 78 1010.3
20260506105023 17 198 6.4 12.9 0.00 0.00 0.00 78 1010.3
20260506104541 17 180 4.8 14.5 0.00 0.00 0.00 79 1010.3
20260506104022 17 173 4.8 17.7 0.00 0.00 0.00 79 1010.3
20260506103521 17 210 6.4 17.7 0.00 0.00 0.00 79 1010.3
20260506103036 17 210 4.8 19.3 0.00 0.00 0.00 79 1010.3
20260506102522 17 153 6.4 19.3 0.00 0.00 0.00 79 1010.4
20260506102024 17 165 6.4 12.9 0.00 0.00 0.00 79 1010.4
20260506101542 17 166 4.8 12.9 0.00 0.00 0.00 79 1010.4
20260506101023 17 194 4.8 14.5 0.00 0.00 0.00 79 1010.3
20260506100521 17 190 4.8 14.5 0.00 0.00 0.00 79 1010.3
20260506100040 17 164 4.8 17.7 0.00 0.00 0.00 79 1010.3
20260506095522 17 157 6.4 17.7 0.00 0.00 0.00 79 1010.2
20260506095021 17 202 6.4 14.5 0.00 0.00 0.00 79 1010.2
20260506094544 17 163 4.8 16.1 0.00 0.00 0.00 79 1010.2
20260506094022 17 197 6.4 16.1 0.00 0.00 0.00 79 1010.2
20260506093523 17 167 4.8 12.9 0.00 0.00 0.00 79 1010.2
20260506093044 17 181 4.8 19.3 0.00 0.00 0.00 79 1010.2
20260506092521 17 138 4.8 19.3 0.00 0.00 0.00 78 1010.2
20260506092022 17 165 8.0 19.3 0.00 0.00 0.00 78 1010.2
20260506091536 17 199 6.4 14.5 0.00 0.00 0.00 78 1010.2
20260506091024 17 193 6.4 19.3 0.00 0.00 0.00 78 1010.3
20260506090524 17 211 6.4 19.3 0.00 0.00 0.00 78 1010.3
20260506090035 17 211 6.4 17.7 0.00 0.00 0.00 78 1010.2
20260506085521 17 170 6.4 17.7 0.00 0.00 0.00 78 1010.3
20260506085021 17 192 4.8 22.5 0.00 0.00 0.00 78 1010.3
20260506084541 17 188 8.0 22.5 0.00 0.00 0.00 78 1010.3
20260506084021 17 202 6.4 17.7 0.00 0.00 0.00 78 1010.5
20260506083523 17 160 9.7 19.3 0.00 0.00 0.00 78 1010.3
20260506083042 17 159 9.7 19.3 0.00 0.00 0.00 78 1010.3
20260506082522 17 150 4.8 16.1 0.00 0.00 0.00 77 1010.3
20260506082021 17 157 8.0 20.9 0.00 0.00 0.00 77 1010.4
20260506081536 17 205 8.0 20.9 0.00 0.00 0.00 77 1010.5
20260506081021 18 155 9.7 20.9 0.00 0.00 0.00 77 1010.4
20260506080524 18 128 8.0 17.7 0.00 0.00 0.00 77 1010.4
20260506073520 18 136 4.8 22.5 0.00 0.00 0.00 76 1010.5
20260506073035 18 184 8.0 22.5 0.00 0.00 0.00 76 1010.3
20260506072521 18 209 8.0 17.7 0.00 0.00 0.00 76 1010.4
20260506072022 18 123 6.4 17.7 0.00 0.00 0.00 76 1010.4
20260506071547 18 212 6.4 14.5 0.00 0.00 0.00 76 1010.5
20260506071022 18 153 4.8 19.3 0.00 0.00 0.00 76 1010.6
20260506070522 18 192 6.4 22.5 0.00 0.00 0.00 76 1010.6
20260506062021 18 188 6.4 14.5 0.00 0.00 0.00 73 1010.6
20260506061542 18 210 4.8 14.5 0.00 0.00 0.00 73 1010.7
20260506061025 18 171 6.4 19.3 0.00 0.00 0.00 73 1010.7
20260506060521 18 152 4.8 19.3 0.00 0.00 0.00 73 1010.6
20260506051024 19 207 4.8 11.3 0.00 0.00 0.00 71 1011.2
20260506050521 19 198 4.8 11.3 0.00 0.00 0.00 71 1011.2
20260506045021 19 181 1.6 17.7 0.00 0.00 0.00 70 1011.3
20260506044551 19 194 6.4 17.7 0.00 0.00 0.00 69 1011.2
20260506044023 19 169 4.8 12.9 0.00 0.00 0.00 69 1011.3
20260506043525 20 183 3.2 14.5 0.00 0.00 0.00 68 1011.3
20260506043038 20 195 6.4 14.5 0.00 0.00 0.00 68 1011.2
20260506042521 20 168 4.8 16.1 0.00 0.00 0.00 68 1011.2
20260506042021 20 194 4.8 16.1 0.00 0.00 0.00 68 1011.2
20260506041546 20 126 3.2 20.9 0.00 0.00 0.00 67 1011.2
20260506041020 20 180 4.8 20.9 0.00 0.00 0.00 67 1011.2
20260506040523 20 186 4.8 12.9 0.00 0.00 0.00 67 1011.2
20260506040044 20 198 6.4 12.9 0.00 0.00 0.00 67 1011.1
20260506035520 20 163 4.8 12.9 0.00 0.00 0.00 67 1011.2
20260506035022 20 144 6.4 12.9 0.00 0.00 0.00 66 1011.2
20260506034542 20 197 4.8 16.1 0.00 0.00 0.00 66 1011.1
20260506034023 20 155 4.8 16.1 0.00 0.00 0.00 66 1011.2
20260506033520 20 170 6.4 17.7 0.00 0.00 0.00 66 1011.2
20260506033040 20 190 6.4 17.7 0.00 0.00 0.00 65 1011.2
20260506032520 20 132 4.8 17.7 0.00 0.00 0.00 65 1011.2
20260506032020 20 107 4.8 12.9 0.00 0.00 0.00 65 1011.1
20260506031551 20 163 3.2 12.9 0.00 0.00 0.00 65 1011.1
20260506031021 20 201 4.8 11.3 0.00 0.00 0.00 64 1011.1
20260506030520 20 144 6.4 14.5 0.00 0.00 0.00 64 1011.1
20260506030040 20 205 4.8 14.5 0.00 0.00 0.00 64 1011.1
20260506025525 20 250 6.4 14.5 0.00 0.00 0.00 63 1011.2
20260506025025 20 169 3.2 11.3 0.00 0.00 0.00 63 1011.1
20260506024545 20 162 4.8 12.9 0.00 0.00 0.00 62 1011.2
20260506024025 20 213 3.2 14.5 0.00 0.00 0.00 62 1011.1
20260506023525 20 204 6.4 14.5 0.00 0.00 0.00 62 1011.1
20260506023039 20 207 6.4 20.9 0.00 0.00 0.00 61 1011.2
20260506022525 20 205 6.4 20.9 0.00 0.00 0.00 61 1011.1
20260506022025 20 158 8.0 20.9 0.00 0.00 0.00 60 1011.2
20260506021540 21 175 6.4 19.3 0.00 0.00 0.00 60 1011.1
20260506021025 21 223 6.4 17.7 0.00 0.00 0.00 60 1011.2
20260506020528 21 188 8.0 17.7 0.00 0.00 0.00 60 1011.2
20260506020037 21 200 4.8 14.5 0.00 0.00 0.00 59 1011.2
20260506015526 21 169 3.2 12.9 0.00 0.00 0.00 59 1011.2
20260506015026 21 136 6.4 14.5 0.00 0.00 0.00 59 1011.1
20260506014541 21 175 4.8 14.5 0.00 0.00 0.00 58 1011.0
20260506014024 21 190 4.8 16.1 0.00 0.00 0.00 58 1011.1
20260506013525 21 134 6.4 16.1 0.00 0.00 0.00 58 1010.8
20260506013046 21 147 4.8 19.3 0.00 0.00 0.00 58 1010.9
20260506012526 21 204 6.4 19.3 0.00 0.00 0.00 58 1010.9
20260506012027 21 210 6.4 19.3 0.00 0.00 0.00 57 1010.9
20260506011540 21 223 6.4 17.7 0.00 0.00 0.00 57 1010.9
20260506011027 22 189 8.0 20.9 0.00 0.00 0.00 57 1010.7
20260506010526 22 169 6.4 20.9 0.00 0.00 0.00 57 1010.8
20260506010039 22 135 4.8 16.1 0.00 0.00 0.00 56 1010.7
20260506005526 22 196 6.4 17.7 0.00 0.00 0.00 56 1010.6
20260506005027 22 163 8.0 17.7 0.00 0.00 0.00 55 1010.5
20260506004610 22 163 8.0 17.7 0.00 0.00 0.00 54 1010.4
20260506004024 22 172 6.4 17.7 0.00 0.00 0.00 53 1010.4
20260506003525 22 166 8.0 17.7 0.00 0.00 0.00 52 1010.2
20260506003042 22 188 6.4 16.1 0.00 0.00 0.00 52 1010.3
20260506002525 23 207 6.4 22.5 0.00 0.00 0.00 51 1010.1
20260506002025 23 173 6.4 22.5 0.00 0.00 0.00 50 1010.1
20260506001544 23 192 9.7 22.5 0.00 0.00 0.00 49 1010.1
20260506001025 23 198 8.0 19.3 0.00 0.00 0.00 47 1010.0
20260506000526 23 137 8.0 19.3 0.00 0.00 0.00 46 1010.0
20260506000045 24 184 9.7 19.3 0.00 0.00 0.00 45 1010.0
20260505235526 24 153 6.4 19.3 0.00 0.00 0.00 44 1009.8
20260505235027 24 140 9.7 19.3 0.00 0.00 0.00 43 1009.8
20260505234606 25 150 6.4 16.1 0.00 0.00 0.00 43 1009.8
20260505234025 25 180 6.4 19.3 0.00 0.00 0.00 42 1009.7
20260505233521 25 182 4.8 19.3 0.00 0.00 0.00 43 1009.5
20260505233041 25 166 6.4 19.3 0.00 0.00 0.00 42 1009.6
20260505232526 25 186 4.8 19.3 0.00 0.00 0.00 42 1009.5
20260505232026 25 209 8.0 27.4 0.00 0.00 0.00 42 1009.5
20260505231546 25 158 9.7 27.4 0.00 0.00 0.00 41 1009.5
20260505231025 25 173 9.7 24.1 0.00 0.00 0.00 41 1009.3
20260505230525 25 182 11.3 24.1 0.00 0.00 0.00 41 1009.2
20260505230047 26 148 4.8 17.7 0.00 0.00 0.00 41 1009.2
20260505225527 26 192 9.7 19.3 0.00 0.00 0.00 40 1009.3
20260505225024 26 255 4.8 29.0 0.00 0.00 0.00 40 1009.1
20260505224543 26 195 9.7 29.0 0.00 0.00 0.00 39 1009.1
20260505224025 26 189 8.0 27.4 0.00 0.00 0.00 38 1009.2
20260505223525 26 81 6.4 20.9 0.00 0.00 0.00 38 1009.0
20260505223051 26 170 8.0 29.0 0.00 0.00 0.00 38 1008.9
20260505222525 26 178 6.4 29.0 0.00 0.00 0.00 37 1009.0
20260505222023 26 186 6.4 19.3 0.00 0.00 0.00 37 1009.0
20260505221539 27 205 8.0 32.2 0.00 0.00 0.00 36 1009.0
20260505221021 27 215 8.0 32.2 0.00 0.00 0.00 35 1008.8
20260505220525 27 200 9.7 24.1 0.00 0.00 0.00 33 1008.8
20260505220050 27 185 8.0 24.1 0.00 0.00 0.00 33 1008.7
20260505215526 27 213 8.0 24.1 0.00 0.00 0.00 32 1008.8
20260505215025 27 244 8.0 30.6 0.00 0.00 0.00 33 1008.9
20260505214547 27 173 9.7 30.6 0.00 0.00 0.00 32 1008.8
20260505214026 27 226 9.7 30.6 0.00 0.00 0.00 32 1008.7
20260505213525 27 187 6.4 25.7 0.00 0.00 0.00 31 1008.8
20260505213040 27 209 11.3 25.7 0.00 0.00 0.00 31 1008.8
20260505212525 27 233 8.0 29.0 0.00 0.00 0.00 31 1008.7
20260505212023 27 245 11.3 29.0 0.00 0.00 0.00 30 1008.7
20260505211535 27 188 12.9 29.0 0.00 0.00 0.00 33 1008.6
20260505211023 27 156 14.5 29.0 0.00 0.00 0.00 36 1008.6
20260505210521 27 151 11.3 24.1 0.00 0.00 0.00 36 1008.5
20260505210043 27 207 8.0 22.5 0.00 0.00 0.00 36 1008.6
20260505205526 27 163 12.9 32.2 0.00 0.00 0.00 37 1008.3
20260505205026 27 229 9.7 33.8 0.00 0.00 0.00 37 1008.5
20260505204542 27 161 11.3 33.8 0.00 0.00 0.00 37 1008.3
20260505204025 27 190 16.1 30.6 0.00 0.00 0.00 36 1008.4
20260505203522 28 236 8.0 24.1 0.00 0.00 0.00 38 1008.4
20260505203039 27 235 8.0 30.6 0.00 0.00 0.00 38 1008.5
20260505202525 27 122 11.3 32.2 0.00 0.00 0.00 38 1008.5
20260505202024 27 184 16.1 32.2 0.00 0.00 0.00 37 1008.5
20260505201535 27 213 12.9 27.4 0.00 0.00 0.00 36 1008.5
20260505201022 28 139 12.9 29.0 0.00 0.00 0.00 37 1008.5
20260505200525 28 146 8.0 29.0 0.00 0.00 0.00 37 1008.6
20260505200037 28 212 11.3 27.4 0.00 0.00 0.00 35 1008.6
20260505195524 28 230 9.7 27.4 0.00 0.00 0.00 37 1008.6
20260505195024 28 205 9.7 24.1 0.00 0.00 0.00 37 1008.7
20260505194542 27 160 8.0 24.1 0.00 0.00 0.00 38 1008.8
20260505194026 28 188 12.9 25.7 0.00 0.00 0.00 37 1008.9
20260505193521 28 187 8.0 27.4 0.00 0.00 0.00 36 1008.9
20260505193042 28 146 14.5 27.4 0.00 0.00 0.00 36 1008.9
20260505192525 28 149 6.4 32.2 0.00 0.00 0.00 37 1009.0
20260505192025 28 129 9.7 33.8 0.00 0.00 0.00 37 1008.9
20260505191540 28 171 9.7 37.0 0.00 0.00 0.00 36 1009.0
20260505191025 28 184 12.9 37.0 0.00 0.00 0.00 37 1009.2
20260505190528 28 173 11.3 25.7 0.00 0.00 0.00 37 1009.1
20260505190046 28 158 11.3 22.5 0.00 0.00 0.00 36 1009.1
20260505185522 28 181 9.7 22.5 0.00 0.00 0.00 39 1009.2
20260505185022 28 213 6.4 24.1 0.00 0.00 0.00 38 1009.4
20260505184535 28 205 12.9 27.4 0.00 0.00 0.00 37 1009.5
20260505184021 28 234 6.4 27.4 0.00 0.00 0.00 40 1009.4
20260505183522 28 205 12.9 27.4 0.00 0.00 0.00 38 1009.6